When you browse on this site, cookies collect data to enhance your experience and personalize the content and advertising you see.
Visit our Privacy Policy to learn more. By continuing to use the site, you agree to this use of cookies and data.
  • In Czech Republic
  • List of Countries
  • For 7 days
  • Water Temperature
  • Satellite Maps
  • Weather Map
  • Weather Widgets
  • user-avatar
    Login

    Hourly Weather Gaborone

    Today, 17 January, Thursday

    Time Temperature Precipitation Wind Pressure Humidity
    00:00 +31°C° 0 mm 2 mps 675 mmHg 40%
    01:00 +30°C° 0 mm 1 mps 675 mmHg 42%
    02:00 +29°C° 0 mm 1 mps 675 mmHg 48%
    03:00 +29°C° 0 mm 1 mps 675 mmHg 50%
    04:00 +28°C° 0 mm 1 mps 675 mmHg 51%
    05:00 +28°C° 0 mm 1 mps 675 mmHg 52%
    06:00 +28°C° 0 mm 2 mps 676 mmHg 52%
    07:00 +29°C° 0 mm 2 mps 676 mmHg 52%
    08:00 +30°C° 0 mm 3 mps 677 mmHg 52%
    09:00 +31°C° 0 mm 3 mps 677 mmHg 47%
    10:00 +34°C° 0 mm 3 mps 677 mmHg 41%
    11:00 +36°C° 0 mm 3 mps 677 mmHg 36%
    12:00 +37°C° 0 mm 3 mps 677 mmHg 32%
    13:00 +38°C° 0 mm 2 mps 676 mmHg 29%
    14:00 +39°C° 0 mm 2 mps 676 mmHg 25%
    15:00 +39°C° 0 mm 2 mps 675 mmHg 25%
    16:00 +38°C° 0 mm 2 mps 675 mmHg 25%
    17:00 +38°C° 0 mm 2 mps 674 mmHg 26%
    18:00 +36°C° 0.1 mm 2 mps 674 mmHg 31%
    19:00 +35°C° 0.1 mm 3 mps 674 mmHg 36%
    20:00 +33°C° 0.1 mm 4 mps 674 mmHg 41%
    21:00 +31°C° 0.4 mm 3 mps 674 mmHg 47%
    22:00 +29°C° 0.4 mm 2 mps 674 mmHg 53%
    23:00 +28°C° 0.4 mm 2 mps 674 mmHg 58%

    Tomorrow, 18 January, Friday

    Time Temperature Precipitation Wind Pressure Humidity
    00:00 +28°C° 0 mm 2 mps 674 mmHg 59%
    01:00 +28°C° 0 mm 2 mps 674 mmHg 59%
    02:00 +27°C° 0 mm 1 mps 673 mmHg 59%
    03:00 +27°C° 0 mm 2 mps 673 mmHg 59%
    04:00 +27°C° 0 mm 2 mps 673 mmHg 60%
    05:00 +27°C° 0 mm 2 mps 673 mmHg 60%
    06:00 +28°C° 0.1 mm 2 mps 674 mmHg 57%
    07:00 +29°C° 0.1 mm 1 mps 674 mmHg 54%
    08:00 +30°C° 0.1 mm 1 mps 675 mmHg 50%
    09:00 +32°C° 0 mm 1 mps 675 mmHg 43%
    10:00 +36°C° 0 mm 2 mps 676 mmHg 37%
    11:00 +38°C° 0 mm 2 mps 676 mmHg 30%
    12:00 +39°C° 0 mm 2 mps 675 mmHg 27%
    13:00 +40°C° 0 mm 2 mps 675 mmHg 24%
    14:00 +41°C° 0 mm 2 mps 675 mmHg 21%
    15:00 +40°C° 0 mm 2 mps 674 mmHg 21%
    16:00 +40°C° 0 mm 1 mps 673 mmHg 21%
    17:00 +39°C° 0 mm 1 mps 673 mmHg 21%
    18:00 +37°C° 0.1 mm 1 mps 673 mmHg 24%
    19:00 +36°C° 0.1 mm 2 mps 672 mmHg 27%
    20:00 +35°C° 0.1 mm 3 mps 672 mmHg 30%
    21:00 +34°C° 0 mm 3 mps 673 mmHg 35%
    22:00 +31°C° 0 mm 2 mps 673 mmHg 39%
    23:00 +30°C° 0 mm 2 mps 673 mmHg 44%

    Day after tomorrow, 19 January, Saturday

    Time Temperature Precipitation Wind Pressure Humidity
    00:00 +30°C° 0 mm 2 mps 673 mmHg 46%
    01:00 +29°C° 0 mm 2 mps 673 mmHg 47%
    02:00 +29°C° 0 mm 2 mps 673 mmHg 48%
    03:00 +28°C° 0 mm 2 mps 673 mmHg 45%
    04:00 +28°C° 0 mm 3 mps 673 mmHg 41%
    05:00 +27°C° 0 mm 3 mps 674 mmHg 38%
    06:00 +28°C° 0 mm 4 mps 674 mmHg 33%
    07:00 +28°C° 0 mm 4 mps 675 mmHg 28%
    08:00 +28°C° 0 mm 5 mps 675 mmHg 24%
    09:00 +32°C° 0 mm 4 mps 676 mmHg 20%
    10:00 +34°C° 0 mm 4 mps 676 mmHg 16%
    11:00 +36°C° 0 mm 3 mps 677 mmHg 13%
    12:00 +38°C° 0 mm 3 mps 676 mmHg 11%
    13:00 +39°C° 0 mm 3 mps 676 mmHg 10%
    14:00 +42°C° 0 mm 3 mps 676 mmHg 8%
    15:00 +41°C° 0 mm 4 mps 675 mmHg 8%
    16:00 +41°C° 0 mm 5 mps 675 mmHg 8%
    17:00 +41°C° 0 mm 5 mps 674 mmHg 8%
    18:00 +38°C° 0 mm 4 mps 674 mmHg 10%
    19:00 +36°C° 0 mm 4 mps 674 mmHg 11%
    20:00 +33°C° 0 mm 3 mps 674 mmHg 12%
    21:00 +31°C° 0 mm 3 mps 675 mmHg 11%
    22:00 +31°C° 0 mm 3 mps 675 mmHg 11%
    23:00 +30°C° 0 mm 4 mps 676 mmHg 10%

    20 January, Sunday

    Time Temperature Precipitation Wind Pressure Humidity
    00:00 +29°C° 0 mm 4 mps 676 mmHg 19%
    01:00 +28°C° 0 mm 5 mps 676 mmHg 28%
    02:00 +27°C° 0 mm 6 mps 676 mmHg 36%
    03:00 +26°C° 0 mm 6 mps 676 mmHg 47%
    04:00 +24°C° 0 mm 6 mps 677 mmHg 57%
    05:00 +24°C° 0 mm 6 mps 677 mmHg 68%
    06:00 +23°C° 0 mm 5 mps 678 mmHg 66%
    07:00 +23°C° 0 mm 5 mps 679 mmHg 65%
    08:00 +23°C° 0 mm 4 mps 679 mmHg 64%
    09:00 +25°C° 0 mm 5 mps 680 mmHg 61%
    10:00 +25°C° 0 mm 5 mps 680 mmHg 57%
    11:00 +26°C° 0 mm 5 mps 680 mmHg 54%
    12:00 +28°C° 0 mm 4 mps 680 mmHg 49%
    13:00 +29°C° 0 mm 4 mps 680 mmHg 43%
    14:00 +32°C° 0 mm 4 mps 680 mmHg 37%
    15:00 +32°C° 0 mm 4 mps 679 mmHg 36%
    16:00 +32°C° 0 mm 4 mps 679 mmHg 35%
    17:00 +31°C° 0 mm 3 mps 679 mmHg 35%
    18:00 +30°C° 0 mm 3 mps 679 mmHg 38%
    19:00 +29°C° 0 mm 3 mps 679 mmHg 42%
    20:00 +27°C° 0 mm 3 mps 679 mmHg 46%
    21:00 +27°C° 0 mm 3 mps 679 mmHg 48%
    22:00 +26°C° 0 mm 4 mps 680 mmHg 49%
    23:00 +25°C° 0 mm 4 mps 680 mmHg 51%

    21 January, Monday

    Time Temperature Precipitation Wind Pressure Humidity
    00:00 +25°C° 0 mm 4 mps 680 mmHg 54%
    01:00 +23°C° 0 mm 4 mps 679 mmHg 56%
    02:00 +22°C° 0 mm 4 mps 679 mmHg 59%
    03:00 +22°C° 0 mm 4 mps 679 mmHg 59%
    04:00 +21°C° 0 mm 4 mps 680 mmHg 59%
    05:00 +21°C° 0 mm 3 mps 680 mmHg 59%
    06:00 +21°C° 0 mm 3 mps 680 mmHg 56%
    07:00 +21°C° 0 mm 4 mps 681 mmHg 54%
    08:00 +22°C° 0 mm 4 mps 681 mmHg 52%
    09:00 +25°C° 0 mm 4 mps 681 mmHg 48%
    10:00 +26°C° 0 mm 3 mps 681 mmHg 44%
    11:00 +28°C° 0 mm 3 mps 681 mmHg 39%
    12:00 +30°C° 0 mm 3 mps 681 mmHg 36%
    13:00 +31°C° 0 mm 2 mps 680 mmHg 32%
    14:00 +34°C° 0 mm 2 mps 680 mmHg 28%
    15:00 +33°C° 0 mm 1 mps 679 mmHg 26%
    16:00 +34°C° 0 mm 1 mps 679 mmHg 25%
    17:00 +34°C° 0 mm 1 mps 678 mmHg 24%
    18:00 +32°C° 0 mm 1 mps 678 mmHg 26%
    19:00 +31°C° 0 mm 2 mps 678 mmHg 28%
    20:00 +29°C° 0 mm 2 mps 678 mmHg 31%
    21:00 +29°C° 0 mm 2 mps 678 mmHg 32%
    22:00 +28°C° 0 mm 2 mps 677 mmHg 34%
    23:00 +27°C° 0 mm 2 mps 677 mmHg 35%

    22 January, Tuesday

    Time Temperature Precipitation Wind Pressure Humidity
    00:00 +27°C° 0 mm 2 mps 677 mmHg 36%
    01:00 +27°C° 0 mm 1 mps 677 mmHg 37%
    02:00 +27°C° 0 mm 1 mps 677 mmHg 37%
    03:00 +26°C° 0 mm 2 mps 677 mmHg 40%
    04:00 +25°C° 0 mm 2 mps 677 mmHg 42%
    05:00 +24°C° 0 mm 2 mps 677 mmHg 44%
    06:00 +25°C° 0 mm 2 mps 677 mmHg 43%
    07:00 +26°C° 0 mm 2 mps 678 mmHg 41%
    08:00 +27°C° 0 mm 2 mps 678 mmHg 40%
    09:00 +29°C° 0 mm 2 mps 679 mmHg 35%
    10:00 +31°C° 0 mm 2 mps 679 mmHg 30%
    11:00 +35°C° 0 mm 2 mps 679 mmHg 25%
    12:00 +36°C° 0 mm 2 mps 678 mmHg 23%
    13:00 +38°C° 0 mm 2 mps 678 mmHg 20%
    14:00 +40°C° 0 mm 2 mps 677 mmHg 18%
    15:00 +39°C° 0 mm 2 mps 676 mmHg 18%
    16:00 +39°C° 0 mm 1 mps 676 mmHg 18%
    17:00 +39°C° 0 mm 1 mps 675 mmHg 18%
    18:00 +36°C° 0 mm 1 mps 675 mmHg 19%
    19:00 +36°C° 0 mm 2 mps 675 mmHg 20%
    20:00 +34°C° 0 mm 2 mps 674 mmHg 22%
    21:00 +32°C° 0 mm 2 mps 674 mmHg 23%
    22:00 +31°C° 0 mm 2 mps 674 mmHg 25%
    23:00 +30°C° 0 mm 2 mps 674 mmHg 27%
    Show more